Regional Weather Roundup
Issued by NWS

Home | Current Version | Previous Version | Text Only | Print | Product List | Glossary Off
Versions: 1 2 3 4 5 6 7 8 9 10 11 12 13 14 15 16 17 18 19 20 21 22 23 24 25 26 27 28 29 30 31 32 33 34 35 36 37 38 39 40 41 42 43 44 45 46 47 48 49 50

000
ASUS45 KABQ 251201
RWRNM
NEW MEXICO REGIONAL WEATHER ROUNDUP
NATIONAL WEATHER SERVICE ALBUQUERQUE NM
600 AM MDT SAT MAR 25 2017

NOTE: "FAIR" MEANS FEW OR NO CLOUDS BELOW 12,000 FEET AGL WITH NO
       SIGNIFICANT WEATHER OR OBSTRUCTIONS TO VISION.

      THIS PRODUCT IS RELEASED AS TWO VERSIONS.  ONE VERSION NEAR
      THE TOP OF THE HOUR CONTAINING PRELIMINARY DATA FROM ALBUQUERQUE
      AND OTHER STATIONS.  A FINAL VERSION WITH ADDITIONAL DATA IS
      ISSUED ABOUT 10 MINUTES AFTER THE HOUR.

NMZ501-503-504-510>518-251300-
NORTHWEST PLATEAU/NORTHCENTRAL MOUNTAINS

CITY           SKY/WX    TMP DP  RH WIND       PRES   REMARKS
FARMINGTON     FAIR      33  24  69 NE8       30.14S WCI  26
6HR MIN TEMP:  31; 6HR MAX TEMP:  45;

LOS ALAMOS     FAIR      38  26  61 SW3       30.20S
SANTA FE       FAIR      31  29  92 NE8       30.16R WCI  23
6HR MIN TEMP:  27; 6HR MAX TEMP:  39;

TAOS             N/A     27  18  69 N3        30.20S
ANGEL FIRE     FOG       18  17  95 CALM      30.21S VSB 3/4

$$
NMZ402-403-502-505>509-251300-
WESTCENTRAL MOUNTAINS/SOUTHWEST MOUNTAINS

CITY           SKY/WX    TMP DP  RH WIND       PRES   REMARKS
GALLUP         FAIR      22  19  89 NE3       30.17F
6HR MIN TEMP:  22; 6HR MAX TEMP:  34;

GRANTS         FAIR      24  17  75 NW12      30.21S WCI  13
SILVER CITY    FAIR      35  25  66 N8        30.14S WCI  28

$$
NMZ407-409-411-412-251300-
SOUTHERN DESERTS

CITY           SKY/WX    TMP DP  RH WIND       PRES   REMARKS
DEMING         FAIR      38  26  62 CALM      30.12S
6HR MIN TEMP:  38; 6HR MAX TEMP:  51;

LAS CRUCES     FAIR      42  23  46 CALM      30.12S
HOLLOMAN AFB   FAIR      40  22  48 N5        30.17S
ALAMOGORDO     FAIR      37  19  48 N7        30.15R WCI  32
T OR C         FAIR      44  21  40 NW6       30.12S
6HR MIN TEMP:  44; 6HR MAX TEMP:  55;


$$
NMZ519>523-251300-
CENTRAL VALLEYS/CENTRAL HIGHLANDS

CITY           SKY/WX    TMP DP  RH WIND       PRES   REMARKS
ALBUQUERQUE    FAIR      45  19  35 E5        30.16F
6HR MIN TEMP:  41; 6HR MAX TEMP:  55;

DOUBLE EAGLE   CLEAR     34  18  51 CALM      30.17
MORIARTY ARPT  FAIR      23  20  87 CALM      30.17S
6HR MIN TEMP:  21; 6HR MAX TEMP:  34;

CLINES CORNERS FAIR      33  22  63 NW17      30.16R WCI  22
6HR MIN TEMP:  29; 6HR MAX TEMP:  36;

BELEN          FAIR      36  22  56 CALM      30.16S
6HR MIN TEMP:  33; 6HR MAX TEMP:  45;

SOCORRO        FAIR      39  23  53 CALM      30.14F
6HR MIN TEMP:  39; 6HR MAX TEMP:  55;


$$
NMZ524>526-539-540-251300-
SOUTHCENTRAL MOUNTAINS

CITY           SKY/WX    TMP DP  RH WIND       PRES   REMARKS
RUIDOSO        NOT AVBL

$$
NMZ527>531-251300-
NORTHEAST HIGHLANDS/NORTHEAST PLAINS

CITY           SKY/WX    TMP DP  RH WIND       PRES   REMARKS
LAS VEGAS      FAIR      25  22  88 NE6       30.13S WCI  18
6HR MIN TEMP:  24; 6HR MAX TEMP:  33;

RATON          FAIR      28  24  85 N6        30.12S WCI  22
6HR MIN TEMP:  27; 6HR MAX TEMP:  40;

CLAYTON        FAIR      34  29  82 W7        30.12R WCI  28
6HR MIN TEMP:  30; 6HR MAX TEMP:  40;


$$
NMZ532>537-251300-
EASTCENTRAL PLAINS

CITY           SKY/WX    TMP DP  RH WIND       PRES   REMARKS
TUCUMCARI      FAIR      28  23  81 CALM      30.12S
6HR MIN TEMP:  28; 6HR MAX TEMP:  41;

CANNON AFB     FAIR      38  30  72 W6        30.15R WCI  34
6HR MIN TEMP:  36; 6HR MAX TEMP:  42;

CLOVIS AIRPORT FAIR      32  25  74 NW6       30.17R WCI  26

$$
NMZ028-029-538-251300-
SOUTHEAST PLAINS

CITY           SKY/WX    TMP DP  RH WIND       PRES   REMARKS
ROSWELL        FAIR      36  23  59 W5        30.17  WCI  32
6HR MIN TEMP:  34; 6HR MAX TEMP:  50;

ARTESIA        FAIR      39  25  56 SW12      30.17R WCI  32
CARLSBAD       FAIR      38  26  62 S5        30.16S WCI  34
6HR MIN TEMP:  38; 6HR MAX TEMP:  54;

HOBBS          CLEAR     37  28  70 W5        30.18R WCI  34


$$




USA.gov is the U.S. government's official web portal to all federal, state and local government web resources and services.